EZY87KZ EGPH-EGKK

Flight info

Callsign EZY87KZ
Flight time 0h 58m
Altitude 33000
Route GOSAM P600 FENIK L612 NAVSO DCT KEPAD L151 DISIT
Aircraft A21N/M-SDE2E3FGHIRWXY/LB1

Departure

Time 2026-04-21 15:44
Airport Edinburgh Airport (EGPH)

Arrival

Time 2026-04-21 16:42
Airport London Gatwick Airport (EGKK)
Time Latitude Longitude Altitude Speed Heading
2026-04-21 15:09 55.94853 -3.35867 122 ft 0 kts 208°
2026-04-21 15:11 55.94853 -3.35866 122 ft 0 kts 208°
2026-04-21 15:17 55.94853 -3.35865 117 ft 0 kts 208°
2026-04-21 15:19 55.94854 -3.35865 117 ft 0 kts 208°
2026-04-21 15:22 55.94854 -3.35864 117 ft 0 kts 208°
2026-04-21 15:23 55.94855 -3.35864 122 ft 0 kts 208°
2026-04-21 15:29 55.94859 -3.35860 122 ft 5 kts 208°
2026-04-21 15:29 55.94882 -3.35839 117 ft 6 kts 210°
2026-04-21 15:29 55.94901 -3.35809 117 ft 6 kts 247°
2026-04-21 15:30 55.94903 -3.35766 118 ft 6 kts 290°
2026-04-21 15:30 55.94899 -3.35750 118 ft 28 kts 298°
2026-04-21 15:35 55.94900 -3.35752 118 ft 1 kts 298°
2026-04-21 15:35 55.94907 -3.35776 118 ft 4 kts 298°
2026-04-21 15:35 55.94926 -3.35828 118 ft 7 kts 314°
2026-04-21 15:36 55.94976 -3.35860 120 ft 9 kts
2026-04-21 15:36 55.95030 -3.35830 119 ft 8 kts 356°
2026-04-21 15:36 55.95071 -3.35914 122 ft 11 kts 299°
2026-04-21 15:36 55.95105 -3.36052 120 ft 13 kts 285°
2026-04-21 15:37 55.95126 -3.36176 120 ft 9 kts 288°
2026-04-21 15:37 55.95125 -3.36303 118 ft 12 kts 247°
2026-04-21 15:37 55.95079 -3.36447 120 ft 15 kts 238°
2026-04-21 15:37 55.95021 -3.36615 119 ft 17 kts 239°
2026-04-21 15:38 55.94955 -3.36810 119 ft 19 kts 239°
2026-04-21 15:38 55.94881 -3.37029 119 ft 22 kts 239°
2026-04-21 15:38 55.94801 -3.37267 120 ft 23 kts 239°
2026-04-21 15:38 55.94715 -3.37520 121 ft 25 kts 239°
2026-04-21 15:39 55.94622 -3.37795 119 ft 26 kts 239°
2026-04-21 15:39 55.94542 -3.38029 118 ft 23 kts 238°
2026-04-21 15:39 55.94457 -3.38278 118 ft 18 kts 238°
2026-04-21 15:39 55.94388 -3.38480 119 ft 19 kts 239°
2026-04-21 15:40 55.94334 -3.38644 119 ft 13 kts 239°
2026-04-21 15:40 55.94295 -3.38759 117 ft 6 kts 238°
2026-04-21 15:40 55.94282 -3.38838 121 ft 6 kts 282°
2026-04-21 15:40 55.94311 -3.38891 119 ft 4 kts 327°
2026-04-21 15:41 55.94312 -3.38892 120 ft 0 kts 328°
2026-04-21 15:41 55.94320 -3.38901 119 ft 3 kts 328°
2026-04-21 15:41 55.94342 -3.38926 120 ft 5 kts 328°
2026-04-21 15:42 55.94377 -3.38963 118 ft 7 kts 328°
2026-04-21 15:42 55.94416 -3.38964 117 ft 3 kts 45°
2026-04-21 15:42 55.94427 -3.38939 118 ft 1 kts 60°
2026-04-21 15:42 55.94434 -3.38918 119 ft 0 kts 60°
2026-04-21 15:43 55.94437 -3.38907 116 ft 2 kts 60°
2026-04-21 15:43 55.94442 -3.38891 117 ft 3 kts 60°
2026-04-21 15:43 55.94463 -3.38828 117 ft 19 kts 60°
2026-04-21 15:43 55.94673 -3.38212 116 ft 93 kts 58°
2026-04-21 15:44 55.95114 -3.36913 195 ft 140 kts 59°
2026-04-21 15:44 55.95620 -3.35426 845 ft 141 kts 61°
2026-04-21 15:44 55.96193 -3.33897 1428 ft 158 kts 51°
2026-04-21 15:44 55.97106 -3.32607 2076 ft 175 kts 40°
2026-04-21 15:45 55.98047 -3.31230 3147 ft 176 kts 45°
2026-04-21 15:45 55.98990 -3.29797 4210 ft 180 kts 45°
2026-04-21 15:45 56.00038 -3.28481 5175 ft 195 kts 31°
2026-04-21 15:45 56.01455 -3.27929 5878 ft 230 kts 360°
2026-04-21 15:46 56.03057 -3.29073 6381 ft 271 kts 323°
2026-04-21 15:46 56.04129 -3.31929 7256 ft 287 kts 287°
2026-04-21 15:46 56.04222 -3.35528 8152 ft 296 kts 256°
2026-04-21 15:46 56.03405 -3.38906 9198 ft 298 kts 239°
2026-04-21 15:47 56.02646 -3.42318 10557 ft 295 kts 250°
2026-04-21 15:47 56.02019 -3.45849 11544 ft 305 kts 250°
2026-04-21 15:47 56.01336 -3.49603 12033 ft 331 kts 250°
2026-04-21 15:47 56.00578 -3.53663 12450 ft 357 kts 250°
2026-04-21 15:48 55.99770 -3.57971 12829 ft 382 kts 251°
2026-04-21 15:48 55.99052 -3.62670 13281 ft 402 kts 254°
2026-04-21 15:48 55.98356 -3.67565 13971 ft 410 kts 255°
2026-04-21 15:48 55.97652 -3.72522 14798 ft 413 kts 254°
2026-04-21 15:49 55.96938 -3.77511 15571 ft 415 kts 254°
2026-04-21 15:49 55.96217 -3.82513 16350 ft 418 kts 254°
2026-04-21 15:49 55.95485 -3.87565 17036 ft 423 kts 254°
2026-04-21 15:49 55.94743 -3.92663 17681 ft 427 kts 254°
2026-04-21 15:50 55.93985 -3.97820 18288 ft 432 kts 254°
2026-04-21 15:50 55.92875 -4.02817 18838 ft 436 kts 239°
2026-04-21 15:50 55.91028 -4.07087 19356 ft 435 kts 222°
2026-04-21 15:50 55.88597 -4.10248 19919 ft 431 kts 205°
2026-04-21 15:51 55.85863 -4.12169 20540 ft 428 kts 195°
2026-04-21 15:51 55.83147 -4.14455 21084 ft 436 kts 210°
2026-04-21 15:51 55.80637 -4.17542 21630 ft 441 kts 213°
2026-04-21 15:51 55.78140 -4.20755 22176 ft 444 kts 213°
2026-04-21 15:52 55.75451 -4.23384 22758 ft 441 kts 198°
2026-04-21 15:52 55.72484 -4.24650 23313 ft 439 kts 184°
2026-04-21 15:52 55.70470 -4.24824 23691 ft 438 kts 176°
2026-04-21 15:52 55.66446 -4.23704 24377 ft 438 kts 161°
2026-04-21 15:53 55.63638 -4.21642 24894 ft 438 kts 150°
2026-04-21 15:53 55.60971 -4.19010 25369 ft 441 kts 148°
2026-04-21 15:53 55.58294 -4.16302 25830 ft 444 kts 149°
2026-04-21 15:53 55.56508 -4.14514 26168 ft 446 kts 149°
2026-04-21 15:54 55.53798 -4.11837 26696 ft 448 kts 150°
2026-04-21 15:54 55.51061 -4.09158 27239 ft 449 kts 150°
2026-04-21 15:54 55.48326 -4.06489 27828 ft 449 kts 150°
2026-04-21 15:54 55.44695 -4.02958 28520 ft 451 kts 151°
2026-04-21 15:55 55.41937 -4.00288 28976 ft 454 kts 151°
2026-04-21 15:55 55.39166 -3.97611 29461 ft 456 kts 152°
2026-04-21 15:55 55.37281 -3.95790 29816 ft 457 kts 152°
2026-04-21 15:55 55.33584 -3.92224 30500 ft 458 kts 152°
2026-04-21 15:56 55.31694 -3.90405 30825 ft 458 kts 152°
2026-04-21 15:56 55.28887 -3.87699 31161 ft 462 kts 152°
2026-04-21 15:56 55.26093 -3.85013 31479 ft 465 kts 152°
2026-04-21 15:56 55.23240 -3.82306 31856 ft 466 kts 154°
2026-04-21 15:57 55.20257 -3.80122 32273 ft 464 kts 162°
2026-04-21 15:57 55.17198 -3.78321 32773 ft 463 kts 163°
2026-04-21 15:57 55.14142 -3.76558 33256 ft 461 kts 163°
2026-04-21 15:57 55.11094 -3.74796 33499 ft 463 kts 163°
2026-04-21 15:58 55.04979 -3.71235 33520 ft 463 kts 163°
2026-04-21 15:58 54.98863 -3.67674 33497 ft 463 kts 163°
2026-04-21 15:59 54.92746 -3.64120 33491 ft 464 kts 163°
2026-04-21 15:59 54.86614 -3.60569 33487 ft 465 kts 163°
2026-04-21 16:00 54.80488 -3.57043 33481 ft 465 kts 164°
2026-04-21 16:00 54.74354 -3.53543 33477 ft 465 kts 164°
2026-04-21 16:01 54.68202 -3.50036 33473 ft 466 kts 164°
2026-04-21 16:01 54.62042 -3.46514 33460 ft 466 kts 164°
2026-04-21 16:02 54.55875 -3.42995 33465 ft 467 kts 164°
2026-04-21 16:02 54.49702 -3.39494 33468 ft 467 kts 164°
2026-04-21 16:03 54.43523 -3.36034 33448 ft 468 kts 164°
2026-04-21 16:03 54.37332 -3.32533 33446 ft 468 kts 164°
2026-04-21 16:04 54.31144 -3.29041 33434 ft 469 kts 164°
2026-04-21 16:04 54.24939 -3.25563 33435 ft 469 kts 165°
2026-04-21 16:05 54.18729 -3.22097 33424 ft 470 kts 165°
2026-04-21 16:05 54.12504 -3.18651 33424 ft 471 kts 165°
2026-04-21 16:06 54.06268 -3.15197 33412 ft 472 kts 165°
2026-04-21 16:06 54.00024 -3.11731 33411 ft 472 kts 165°
2026-04-21 16:07 53.93764 -3.08283 33406 ft 473 kts 165°
2026-04-21 16:07 53.87492 -3.04836 33411 ft 474 kts 165°
2026-04-21 16:08 53.78058 -2.99667 33410 ft 475 kts 166°
2026-04-21 16:09 53.71759 -2.96231 33409 ft 476 kts 166°
2026-04-21 16:09 53.65432 -2.92796 33403 ft 477 kts 166°
2026-04-21 16:10 53.59143 -2.89398 33400 ft 478 kts 166°
2026-04-21 16:10 53.52808 -2.85971 33397 ft 479 kts 166°
2026-04-21 16:11 53.46464 -2.82558 33401 ft 479 kts 166°
2026-04-21 16:11 53.40102 -2.79144 33404 ft 480 kts 166°
2026-04-21 16:12 53.33732 -2.75735 33407 ft 480 kts 166°
2026-04-21 16:12 53.27358 -2.72333 33412 ft 481 kts 166°
2026-04-21 16:13 53.20978 -2.68944 33402 ft 481 kts 166°
2026-04-21 16:13 53.14585 -2.65560 33373 ft 482 kts 167°
2026-04-21 16:14 53.08188 -2.62178 33378 ft 482 kts 167°
2026-04-21 16:14 53.01780 -2.58812 33376 ft 483 kts 167°
2026-04-21 16:15 52.95381 -2.55447 33378 ft 483 kts 167°
2026-04-21 16:15 52.88957 -2.52090 33377 ft 484 kts 167°
2026-04-21 16:16 52.82537 -2.48716 33377 ft 485 kts 165°
2026-04-21 16:16 52.79465 -2.46345 33375 ft 492 kts 153°
2026-04-21 16:16 52.76577 -2.43264 33379 ft 495 kts 149°
2026-04-21 16:17 52.70909 -2.36903 33380 ft 496 kts 149°
2026-04-21 16:17 52.65174 -2.30549 33375 ft 497 kts 149°
2026-04-21 16:17 52.62328 -2.27408 33076 ft 492 kts 149°
2026-04-21 16:18 52.59473 -2.24277 32714 ft 496 kts 149°
2026-04-21 16:18 52.56590 -2.21122 32417 ft 498 kts 149°
2026-04-21 16:18 52.53701 -2.17969 32156 ft 500 kts 149°
2026-04-21 16:18 52.50797 -2.14806 31888 ft 501 kts 149°
2026-04-21 16:19 52.47890 -2.11642 31634 ft 503 kts 150°
2026-04-21 16:19 52.44967 -2.08469 31387 ft 504 kts 150°
2026-04-21 16:19 52.42045 -2.05297 30897 ft 502 kts 150°
2026-04-21 16:19 52.39132 -2.02134 29963 ft 502 kts 150°
2026-04-21 16:20 52.36204 -1.98963 28838 ft 506 kts 149°
2026-04-21 16:20 52.33254 -1.95780 27742 ft 509 kts 149°
2026-04-21 16:20 52.30282 -1.92579 26656 ft 512 kts 149°
2026-04-21 16:20 52.27308 -1.89380 25680 ft 513 kts 149°
2026-04-21 16:21 52.24327 -1.86169 24754 ft 512 kts 148°
2026-04-21 16:21 52.21358 -1.82980 23858 ft 510 kts 148°
2026-04-21 16:21 52.18412 -1.79826 22886 ft 503 kts 148°
2026-04-21 16:21 52.15511 -1.76727 22039 ft 494 kts 148°
2026-04-21 16:22 52.12699 -1.73734 21291 ft 484 kts 148°
2026-04-21 16:22 52.09908 -1.70765 20623 ft 474 kts 147°
2026-04-21 16:22 52.07185 -1.67869 20064 ft 459 kts 147°
2026-04-21 16:22 52.04566 -1.65085 19735 ft 441 kts 147°
2026-04-21 16:23 52.01989 -1.62350 19454 ft 441 kts 147°
2026-04-21 16:23 51.99418 -1.59626 19165 ft 439 kts 147°
2026-04-21 16:23 51.96875 -1.56938 18925 ft 437 kts 147°
2026-04-21 16:23 51.94341 -1.54263 18685 ft 434 kts 147°
2026-04-21 16:24 51.91818 -1.51607 18423 ft 429 kts 147°
2026-04-21 16:24 51.89322 -1.48977 18148 ft 427 kts 147°
2026-04-21 16:24 51.86831 -1.46353 17874 ft 427 kts 147°
2026-04-21 16:24 51.84364 -1.43761 17443 ft 420 kts 147°
2026-04-21 16:25 51.81950 -1.41230 16783 ft 418 kts 147°
2026-04-21 16:25 51.79514 -1.38679 16033 ft 417 kts 147°
2026-04-21 16:25 51.77081 -1.36130 15315 ft 415 kts 146°
2026-04-21 16:25 51.74723 -1.33394 14787 ft 409 kts 139°
2026-04-21 16:26 51.72609 -1.30411 14354 ft 400 kts 137°
2026-04-21 16:26 51.70550 -1.27443 13925 ft 393 kts 137°
2026-04-21 16:26 51.68544 -1.24584 13457 ft 387 kts 137°
2026-04-21 16:26 51.66534 -1.21752 13042 ft 380 kts 137°
2026-04-21 16:27 51.64557 -1.18981 12634 ft 374 kts 137°
2026-04-21 16:27 51.62601 -1.16247 12234 ft 370 kts 137°
2026-04-21 16:27 51.60691 -1.13583 11887 ft 357 kts 137°
2026-04-21 16:27 51.58851 -1.11022 11643 ft 342 kts 137°
2026-04-21 16:28 51.57094 -1.08582 11339 ft 325 kts 137°
2026-04-21 16:28 51.55417 -1.06254 10944 ft 311 kts 137°
2026-04-21 16:28 51.53820 -1.04040 10588 ft 297 kts 136°
2026-04-21 16:28 51.52288 -1.01916 10375 ft 286 kts 136°
2026-04-21 16:29 51.51297 -1.00541 10103 ft 282 kts 136°
2026-04-21 16:29 51.49318 -0.97794 9527 ft 281 kts 136°
2026-04-21 16:29 51.47847 -0.95759 9166 ft 277 kts 136°
2026-04-21 16:29 51.46387 -0.93740 8832 ft 277 kts 136°
2026-04-21 16:30 51.44937 -0.91736 8494 ft 274 kts 136°
2026-04-21 16:30 51.43496 -0.89746 8071 ft 274 kts 136°
2026-04-21 16:30 51.42081 -0.87793 7694 ft 272 kts 136°
2026-04-21 16:30 51.40653 -0.85825 7352 ft 269 kts 136°
2026-04-21 16:31 51.39240 -0.83873 7047 ft 267 kts 136°
2026-04-21 16:31 51.37832 -0.81936 6747 ft 267 kts 136°
2026-04-21 16:31 51.36435 -0.80016 6445 ft 262 kts 136°
2026-04-21 16:31 51.35080 -0.78150 6281 ft 252 kts 135°
2026-04-21 16:32 51.33774 -0.76354 6141 ft 242 kts 135°
2026-04-21 16:32 51.32523 -0.74634 6031 ft 231 kts 135°
2026-04-21 16:32 51.31342 -0.73015 5933 ft 222 kts 135°
2026-04-21 16:32 51.30198 -0.71445 5814 ft 213 kts 135°
2026-04-21 16:33 51.29086 -0.69918 5601 ft 208 kts 135°
2026-04-21 16:33 51.27990 -0.68416 5314 ft 209 kts 135°
2026-04-21 16:33 51.26887 -0.66907 5132 ft 208 kts 135°
2026-04-21 16:33 51.25786 -0.65404 5023 ft 208 kts 135°
2026-04-21 16:34 51.24684 -0.63902 4911 ft 208 kts 135°
2026-04-21 16:34 51.23585 -0.62405 4801 ft 208 kts 134°
2026-04-21 16:34 51.22483 -0.60900 4704 ft 208 kts 135°
2026-04-21 16:34 51.21387 -0.59406 4608 ft 207 kts 135°
2026-04-21 16:35 51.20448 -0.58128 4516 ft 207 kts 134°
2026-04-21 16:35 51.19353 -0.56634 4388 ft 207 kts 134°
2026-04-21 16:35 51.18279 -0.55161 4255 ft 200 kts 134°
2026-04-21 16:35 51.17246 -0.53752 4086 ft 191 kts 134°
2026-04-21 16:36 51.16250 -0.52398 3933 ft 186 kts 134°
2026-04-21 16:36 51.15269 -0.51064 3763 ft 184 kts 134°
2026-04-21 16:36 51.14294 -0.49741 3586 ft 184 kts 134°
2026-04-21 16:36 51.13337 -0.48446 3384 ft 182 kts 134°
2026-04-21 16:37 51.12367 -0.47138 3206 ft 182 kts 134°
2026-04-21 16:37 51.11533 -0.45670 2997 ft 174 kts 112°
2026-04-21 16:37 51.11357 -0.43962 2987 ft 147 kts 82°
2026-04-21 16:37 51.11562 -0.42478 2955 ft 130 kts 74°
2026-04-21 16:38 51.11764 -0.41086 2838 ft 128 kts 76°
2026-04-21 16:38 51.11959 -0.39697 2674 ft 129 kts 76°
2026-04-21 16:38 51.12137 -0.38409 2530 ft 114 kts 76°
2026-04-21 16:38 51.12307 -0.37183 2377 ft 113 kts 76°
2026-04-21 16:39 51.12476 -0.35961 2232 ft 113 kts 75°
2026-04-21 16:39 51.12588 -0.35149 2103 ft 114 kts 74°
2026-04-21 16:39 51.12757 -0.33923 1959 ft 113 kts 75°
2026-04-21 16:39 51.12983 -0.32288 1745 ft 113 kts 75°
2026-04-21 16:40 51.13094 -0.31482 1641 ft 112 kts 75°
2026-04-21 16:40 51.13261 -0.30270 1485 ft 111 kts 77°
2026-04-21 16:40 51.13422 -0.29041 1323 ft 121 kts 74°
2026-04-21 16:40 51.13584 -0.27802 1134 ft 112 kts 73°
2026-04-21 16:41 51.13765 -0.26615 1006 ft 110 kts 75°
2026-04-21 16:41 51.13933 -0.25431 823 ft 110 kts 77°
2026-04-21 16:41 51.14091 -0.24233 699 ft 110 kts 75°
2026-04-21 16:41 51.14258 -0.23040 540 ft 111 kts 77°
2026-04-21 16:42 51.14424 -0.21859 388 ft 109 kts 76°
2026-04-21 16:42 51.14586 -0.20682 245 ft 109 kts 76°
2026-04-21 16:42 51.14735 -0.19603 211 ft 82 kts 77°
2026-04-21 16:42 51.14814 -0.19029 218 ft 41 kts 77°
2026-04-21 16:43 51.14856 -0.18730 209 ft 17 kts 77°
2026-04-21 16:43 51.14878 -0.18630 213 ft 4 kts 49°
2026-04-21 16:43 51.14900 -0.18589 206 ft 6 kts 49°
2026-04-21 16:43 51.14935 -0.18525 215 ft 9 kts 50°
2026-04-21 16:44 51.14971 -0.18455 209 ft 9 kts 51°
2026-04-21 16:44 51.14997 -0.18401 208 ft 4 kts 52°
2026-04-21 16:44 51.15024 -0.18347 208 ft 8 kts 52°
2026-04-21 16:44 51.15063 -0.18267 212 ft 8 kts 52°
2026-04-21 16:45 51.15102 -0.18189 214 ft 9 kts 52°
2026-04-21 16:45 51.15116 -0.18165 216 ft 2 kts 21°
2026-04-21 16:45 51.15141 -0.18183 214 ft 5 kts 333°
2026-04-21 16:45 51.15185 -0.18209 210 ft 8 kts 347°
2026-04-21 16:46 51.15243 -0.18228 207 ft 10 kts 348°
2026-04-21 16:46 51.15319 -0.18253 215 ft 13 kts 348°
2026-04-21 16:46 51.15413 -0.18285 210 ft 14 kts 348°
2026-04-21 16:46 51.15498 -0.18315 208 ft 9 kts 347°
2026-04-21 16:47 51.15569 -0.18340 208 ft 12 kts 347°
2026-04-21 16:47 51.15642 -0.18337 211 ft 11 kts 45°
2026-04-21 16:47 51.15663 -0.18219 216 ft 11 kts 80°
2026-04-21 16:47 51.15678 -0.18096 210 ft 13 kts 73°
2026-04-21 16:48 51.15710 -0.18008 207 ft 10 kts 38°
2026-04-21 16:48 51.15747 -0.17968 207 ft 7 kts 32°
2026-04-21 16:48 51.15765 -0.17950 207 ft 1 kts 32°
2026-04-21 16:48 51.15771 -0.17944 207 ft 1 kts 32°
2026-04-21 16:49 51.15772 -0.17942 207 ft 0 kts 32°
2026-04-21 16:49 51.15775 -0.17939 207 ft 0 kts 32°